[Date Prev][Date Next][Thread Prev][Thread Next] - [Date Index][Thread Index][Author Index]

2 Line ISS Keps 3-3



ISS
1 25544U 98067A   09062.31002558  .00010991  00000-0  89353-4 0  3829
2 25544 051.6402 129.2662 0009744 082.8723 044.1430 15.71248579589290
----
Sent via sarex@amsat.org. Opinions expressed are those of the author.
Not an AMSAT member? Join now to support the amateur satellite program!
Subscription settings: http://amsat.org/mailman/listinfo/sarex



AMSAT Top AMSAT Home